Location: Poughquag
(41.6090°N, 73.6820°W)
Time: 07:37:07
(UTC-05:00)

Altair - Pass Details

Date: 01 December 2023
Orbit: 1501 x 1682 km, 47.2° (Epoch: 02 March)

Event Time Altitude Azimuth Distance (km) Brightness Sun altitude
Rises 07:35:37 0° 205° (SSW) 4,840 10.2 4.5°
Reaches altitude 10° 07:39:04 10° 197° (SSW) 3,832 9.9 5.1°
Maximum altitude 07:47:42 38° 134° (SE) 2,255 9.6 6.4°
Drops below altitude 10° 07:56:03 10° 72° (ENE) 3,718 10.1 7.6°
Sets 07:59:20 0° 64° (ENE) 4,682 10.4 8.1°
